Flag for France Weather past 2 weeks in Nancy, France

Now
68 °F

Partly sunny.


Feels Like: 68 °F
Forecast: 55 / 77 °F
Wind: 10 mph from Northwest

Location: Nancy / Ochey

Current Time: Jul 30, 2014 at 12:56:57 PM

Latest Report: Jul 30, 2014 at 12:30 PM


Visibility: N/A

Pressure: 29.92 "Hg

Humidity: 83%

Dew point: 63 °F

Location of NancyLocation

Historic Weather in Nancy — Graph

°F

Nancy temperature yesterday

Maximum temperature yesterday: 63 °F (at 2:30 PM)
Minimum temperature yesterday: 59 °F (at 12:00 AM)
Average temperature yesterday: 61 °F

Past Weeks' High & Low Weather Summary

 TemperatureHumidityPressure
High91 °F (Jul 18, 5:00 PM)100% (Jul 21, 5:30 AM)30.21 "Hg (Jul 21, 5:30 AM)
Low55 °F (Jul 25, 5:30 AM)33% (Jul 17, 4:30 PM)29.83 "Hg (Jul 19, 8:30 PM)
Average69 °F73%29.98 "Hg
* Reported Jul 15 11:00 AM — Jul 30 11:30 AM, Nancy, Weather by CustomWeather, © 2014

Note: Actual official high and low records may vary slightly from our data, if they occured in-between our weather recording intervals... More about our weather records

Advertising

Nancy weather history for previous 24 hours

 ConditionsComfort  
Time TempWeatherWind HumidityBarometerVisibility
11:30 AM
Jul 30
68 °FPartly sunny.12 mph83%29.92 "HgN/A
11:00 AM66 °FPartly sunny.13 mph83%29.92 "HgN/A
10:30 AM66 °FBroken clouds.12 mph88%29.89 "HgN/A
10:00 AM64 °FMostly cloudy.10 mph94%29.89 "Hg5 mi
9:00 AM64 °FLow clouds.9 mph94%29.89 "Hg4 mi
8:30 AM64 °FFog.12 mph94%29.86 "Hg3 mi
8:00 AM64 °FFog.8 mph100%29.86 "Hg2 mi
7:30 AM64 °FDrizzle. Fog.9 mph94%29.86 "Hg2 mi
7:00 AM63 °FLight rain. Fog.8 mph100%29.86 "Hg2 mi
6:30 AM63 °FLight rain. Fog.8 mph100%29.86 "Hg2 mi
6:00 AM63 °FLight rain. Fog.8 mph100%29.86 "Hg2 mi
5:30 AM64 °FDrizzle. Fog.9 mph94%29.83 "Hg2 mi
5:00 AM64 °FFog.10 mph94%29.83 "Hg3 mi
4:30 AM64 °FLow clouds.10 mph94%29.83 "Hg4 mi
4:00 AM64 °FFog.7 mph94%29.83 "Hg2 mi
3:30 AM64 °FFog.8 mph94%29.83 "Hg2 mi
3:00 AM64 °FFog.8 mph94%29.83 "Hg2 mi
2:30 AM64 °FFog.6 mph94%29.83 "Hg2 mi
2:00 AM64 °FFog.6 mph94%29.83 "Hg3 mi
1:30 AM63 °FFog.2 mph100%29.83 "Hg3 mi
1:00 AM63 °FPassing clouds.5 mph100%29.83 "Hg4 mi
12:30 AM63 °FMostly cloudy.5 mph100%29.83 "Hg5 mi
12:00 AM63 °FOvercast.5 mph100%29.83 "HgN/A
11:30 PM
Jul 29
63 °FMostly cloudy.3 mph100%29.83 "HgN/A
11:00 PM63 °FPassing clouds.3 mph100%29.83 "HgN/A
10:30 PM63 °FPassing clouds.6 mph100%29.83 "HgN/A
10:00 PM63 °FLight rain. Low clouds.5 mph100%29.83 "HgN/A
9:30 PM63 °FLow clouds.6 mph100%29.83 "Hg6 mi
9:00 PM63 °FLow clouds.6 mph100%29.83 "HgN/A
8:30 PM63 °FLow clouds.7 mph100%29.83 "Hg4 mi
8:00 PM63 °FLight rain. Fog.6 mph100%29.83 "Hg2 mi
7:30 PM63 °FLight rain. Fog.7 mph100%29.83 "Hg2 mi
7:00 PM63 °FFog.6 mph100%29.83 "Hg2 mi
6:30 PM63 °FLow clouds.6 mph100%29.83 "Hg4 mi
6:00 PM63 °FLow clouds.7 mph100%29.83 "Hg5 mi
5:30 PM63 °FLow clouds.7 mph100%29.83 "Hg4 mi
5:00 PM63 °FFog.8 mph100%29.83 "Hg2 mi
4:30 PM63 °FFog.6 mph100%29.83 "Hg2 mi
4:00 PM63 °FFog.7 mph100%29.83 "Hg1 mi
3:30 PM63 °FFog.6 mph94%29.83 "Hg1 mi
3:00 PM63 °FFog.5 mph94%29.83 "Hg2 mi
2:30 PM63 °FLow clouds.7 mph94%29.83 "Hg4 mi
2:00 PM61 °FLow clouds.6 mph100%29.83 "Hg4 mi
1:30 PM61 °FFog.6 mph100%29.83 "Hg3 mi
1:00 PM61 °FFog.6 mph100%29.83 "Hg2 mi
12:30 PM61 °FFog.7 mph100%29.83 "Hg2 mi
12:00 PM61 °FFog.7 mph94%29.83 "Hg2 mi
Weather by CustomWeather, © 2014

See weather overviewHow to use our weather pages